When you browse on this site, cookies collect data to enhance your experience and personalize the content and advertising you see.
Visit our Privacy Policy to learn more. By continuing to use the site, you agree to this use of cookies and data.
  • In United Kingdom
  • List of Countries
  • For 7 days
  • Water Temperature
  • Weather Map
  • Weather Widgets
  • user-avatar
    Login

    Hourly Weather Bystra

    Today, 28 May, Thursday

    Time Temperature Precipitation Wind Pressure Humidity
    00:00 +8°C° 0.1 mm 1 mps 728 mmHg 95%
    01:00 +9°C° 0 mm 1 mps 728 mmHg 96%
    02:00 +8°C° 0 mm 1 mps 727 mmHg 96%
    03:00 +8°C° 0 mm 1 mps 727 mmHg 95%
    04:00 +8°C° 0 mm 1 mps 727 mmHg 95%
    05:00 +9°C° 0.1 mm 1 mps 727 mmHg 93%
    06:00 +11°C° 0.1 mm 1 mps 727 mmHg 91%
    07:00 +13°C° 0.1 mm 1 mps 727 mmHg 90%
    08:00 +13°C° 0.7 mm 2 mps 726 mmHg 86%
    09:00 +14°C° 0.7 mm 2 mps 726 mmHg 83%
    10:00 +15°C° 0.7 mm 2 mps 726 mmHg 80%
    11:00 +14°C° 0.8 mm 3 mps 726 mmHg 79%
    12:00 +14°C° 0.8 mm 3 mps 725 mmHg 79%
    13:00 +16°C° 0.8 mm 3 mps 725 mmHg 78%
    14:00 +16°C° 0.7 mm 3 mps 725 mmHg 79%
    15:00 +14°C° 0.7 mm 3 mps 724 mmHg 81%
    16:00 +14°C° 0.7 mm 3 mps 724 mmHg 83%
    17:00 +13°C° 0.7 mm 3 mps 724 mmHg 86%
    18:00 +13°C° 0.7 mm 2 mps 724 mmHg 88%
    19:00 +12°C° 0.7 mm 2 mps 725 mmHg 91%
    20:00 +10°C° 0.4 mm 2 mps 725 mmHg 93%
    21:00 +11°C° 0.4 mm 1 mps 725 mmHg 94%
    22:00 +10°C° 0.4 mm 1 mps 725 mmHg 96%
    23:00 +10°C° 0.1 mm 1 mps 725 mmHg 96%

    Tomorrow, 29 May, Friday

    Time Temperature Precipitation Wind Pressure Humidity
    00:00 +9°C° 0.1 mm 1 mps 725 mmHg 97%
    01:00 +9°C° 0.1 mm 1 mps 724 mmHg 98%
    02:00 +9°C° 0.2 mm 1 mps 724 mmHg 98%
    03:00 +10°C° 0.2 mm 1 mps 725 mmHg 98%
    04:00 +10°C° 0.2 mm 1 mps 725 mmHg 98%
    05:00 +9°C° 0.1 mm 2 mps 725 mmHg 98%
    06:00 +9°C° 0.1 mm 2 mps 725 mmHg 97%
    07:00 +9°C° 0.1 mm 2 mps 725 mmHg 97%
    08:00 +9°C° 0.2 mm 2 mps 725 mmHg 96%
    09:00 +9°C° 0.2 mm 2 mps 725 mmHg 95%
    10:00 +9°C° 0.2 mm 3 mps 725 mmHg 94%
    11:00 +9°C° 0.2 mm 2 mps 724 mmHg 93%
    12:00 +9°C° 0.2 mm 2 mps 724 mmHg 91%
    13:00 +9°C° 0.2 mm 2 mps 724 mmHg 90%
    14:00 +10°C° 0.1 mm 3 mps 724 mmHg 84%
    15:00 +12°C° 0.1 mm 3 mps 724 mmHg 78%
    16:00 +13°C° 0.1 mm 3 mps 723 mmHg 72%
    17:00 +12°C° 0.2 mm 3 mps 723 mmHg 78%
    18:00 +12°C° 0.2 mm 2 mps 723 mmHg 84%
    19:00 +10°C° 0.2 mm 2 mps 723 mmHg 90%
    20:00 +9°C° 0.2 mm 2 mps 723 mmHg 91%
    21:00 +9°C° 0.2 mm 2 mps 723 mmHg 93%
    22:00 +9°C° 0.2 mm 1 mps 723 mmHg 95%
    23:00 +9°C° 0.1 mm 1 mps 723 mmHg 95%

    Day after tomorrow, 30 May, Saturday

    Time Temperature Precipitation Wind Pressure Humidity
    00:00 +9°C° 0.1 mm 1 mps 723 mmHg 95%
    01:00 +8°C° 0.1 mm 1 mps 723 mmHg 96%
    02:00 +8°C° 0 mm 1 mps 723 mmHg 96%
    03:00 +8°C° 0 mm 1 mps 723 mmHg 97%
    04:00 +7°C° 0 mm 1 mps 723 mmHg 97%
    05:00 +8°C° 0 mm 1 mps 723 mmHg 96%
    06:00 +7°C° 0 mm 2 mps 723 mmHg 94%
    07:00 +8°C° 0 mm 2 mps 723 mmHg 93%
    08:00 +8°C° 0 mm 2 mps 723 mmHg 91%
    09:00 +8°C° 0 mm 2 mps 722 mmHg 89%
    10:00 +8°C° 0 mm 2 mps 722 mmHg 88%
    11:00 +9°C° 0.1 mm 2 mps 722 mmHg 85%
    12:00 +9°C° 0.1 mm 2 mps 722 mmHg 82%
    13:00 +10°C° 0.1 mm 2 mps 722 mmHg 79%
    14:00 +10°C° 0.2 mm 2 mps 722 mmHg 83%
    15:00 +9°C° 0.2 mm 2 mps 722 mmHg 87%
    16:00 +9°C° 0.2 mm 2 mps 721 mmHg 90%
    17:00 +9°C° 0.1 mm 2 mps 721 mmHg 92%
    18:00 +8°C° 0.1 mm 2 mps 721 mmHg 94%
    19:00 +8°C° 0.1 mm 2 mps 721 mmHg 95%
    20:00 +8°C° 0.1 mm 2 mps 721 mmHg 96%
    21:00 +8°C° 0.1 mm 2 mps 720 mmHg 96%
    22:00 +8°C° 0.1 mm 2 mps 720 mmHg 97%
    23:00 +8°C° 0.1 mm 2 mps 720 mmHg 97%

    31 May, Sunday

    Time Temperature Precipitation Wind Pressure Humidity
    00:00 +8°C° 0.1 mm 2 mps 719 mmHg 97%
    01:00 +8°C° 0.1 mm 2 mps 719 mmHg 97%
    02:00 +8°C° 1 mm 2 mps 718 mmHg 97%
    03:00 +8°C° 1 mm 3 mps 718 mmHg 98%
    04:00 +8°C° 1 mm 3 mps 718 mmHg 98%
    05:00 +8°C° 1.7 mm 3 mps 717 mmHg 98%
    06:00 +8°C° 1.7 mm 3 mps 717 mmHg 98%
    07:00 +9°C° 1.7 mm 3 mps 717 mmHg 98%
    08:00 +9°C° 2.7 mm 2 mps 717 mmHg 98%
    09:00 +9°C° 2.7 mm 2 mps 717 mmHg 98%
    10:00 +9°C° 2.7 mm 2 mps 717 mmHg 98%
    11:00 +9°C° 1.3 mm 2 mps 718 mmHg 98%
    12:00 +10°C° 1.3 mm 2 mps 718 mmHg 98%
    13:00 +10°C° 1.3 mm 2 mps 718 mmHg 98%
    14:00 +10°C° 1.2 mm 2 mps 718 mmHg 98%
    15:00 +12°C° 1.2 mm 1 mps 718 mmHg 98%
    16:00 +12°C° 1.2 mm 1 mps 718 mmHg 98%
    17:00 +12°C° 1.1 mm 1 mps 718 mmHg 98%
    18:00 +12°C° 1.1 mm 1 mps 718 mmHg 99%
    19:00 +13°C° 1.1 mm 1 mps 719 mmHg 99%
    20:00 +13°C° 0.5 mm 2 mps 719 mmHg 99%
    21:00 +13°C° 0.5 mm 2 mps 719 mmHg 98%
    22:00 +14°C° 0.5 mm 2 mps 719 mmHg 98%
    23:00 +13°C° 0.3 mm 2 mps 720 mmHg 98%

    1 June, Monday

    Time Temperature Precipitation Wind Pressure Humidity
    00:00 +12°C° 0.3 mm 3 mps 720 mmHg 98%
    01:00 +12°C° 0.3 mm 3 mps 720 mmHg 98%
    02:00 +12°C° 0.2 mm 3 mps 720 mmHg 98%
    03:00 +12°C° 0.2 mm 3 mps 720 mmHg 98%
    04:00 +11°C° 0.2 mm 3 mps 720 mmHg 98%
    05:00 +11°C° 0.1 mm 3 mps 720 mmHg 98%
    06:00 +11°C° 0.1 mm 3 mps 720 mmHg 97%
    07:00 +11°C° 0.1 mm 3 mps 721 mmHg 96%
    08:00 +11°C° 0.2 mm 3 mps 721 mmHg 96%
    09:00 +11°C° 0.2 mm 3 mps 721 mmHg 96%
    10:00 +11°C° 0.2 mm 3 mps 722 mmHg 96%
    11:00 +11°C° 0.2 mm 3 mps 722 mmHg 95%
    12:00 +12°C° 0.2 mm 3 mps 722 mmHg 94%
    13:00 +12°C° 0.2 mm 3 mps 722 mmHg 94%
    14:00 +12°C° 0.4 mm 3 mps 722 mmHg 93%
    15:00 +13°C° 0.4 mm 3 mps 722 mmHg 93%
    16:00 +13°C° 0.4 mm 3 mps 722 mmHg 92%
    17:00 +12°C° 0.1 mm 3 mps 722 mmHg 93%
    18:00 +13°C° 0.1 mm 2 mps 722 mmHg 94%
    19:00 +12°C° 0.1 mm 2 mps 722 mmHg 96%
    20:00 +12°C° 0.1 mm 2 mps 722 mmHg 96%
    21:00 +10°C° 0.1 mm 2 mps 722 mmHg 97%
    22:00 +11°C° 0.1 mm 1 mps 722 mmHg 97%
    23:00 +11°C° 0.1 mm 1 mps 722 mmHg 97%

    2 June, Tuesday

    Time Temperature Precipitation Wind Pressure Humidity
    00:00 +11°C° 0.1 mm 1 mps 722 mmHg 98%
    01:00 +11°C° 0.1 mm 1 mps 722 mmHg 98%
    02:00 +10°C° 0 mm 2 mps 722 mmHg 98%
    03:00 +10°C° 0 mm 2 mps 722 mmHg 98%
    04:00 +10°C° 0 mm 2 mps 722 mmHg 98%
    05:00 +10°C° 0 mm 2 mps 722 mmHg 97%
    06:00 +10°C° 0 mm 2 mps 722 mmHg 97%
    07:00 +12°C° 0 mm 2 mps 722 mmHg 96%
    08:00 +11°C° 0.1 mm 3 mps 722 mmHg 94%
    09:00 +12°C° 0.1 mm 3 mps 722 mmHg 92%
    10:00 +13°C° 0.1 mm 3 mps 722 mmHg 89%
    11:00 +14°C° 0.3 mm 3 mps 722 mmHg 85%
    12:00 +15°C° 0.3 mm 4 mps 722 mmHg 82%
    13:00 +17°C° 0.3 mm 4 mps 722 mmHg 78%
    14:00 +17°C° 0.3 mm 4 mps 722 mmHg 78%
    15:00 +17°C° 0.3 mm 4 mps 722 mmHg 78%
    16:00 +17°C° 0.3 mm 4 mps 722 mmHg 78%
    17:00 +15°C° 0.1 mm 4 mps 721 mmHg 82%
    18:00 +14°C° 0.1 mm 3 mps 721 mmHg 86%
    19:00 +14°C° 0.1 mm 2 mps 721 mmHg 90%
    20:00 +13°C° 0 mm 2 mps 721 mmHg 92%
    21:00 +12°C° 0 mm 2 mps 722 mmHg 94%
    22:00 +10°C° 0 mm 2 mps 722 mmHg 95%
    23:00 +9°C° 0 mm 2 mps 722 mmHg 96%
    Show more